Starlink 31384

operational
NORAD ID: 58983 Int'l Des: 2024-031 Owner: SPXS Country: US Constellation: starlink
LEOCIRCULAR

Über Starlink 31384

Beschreibung wird geladen...

Live-Position

3D-Globus wird geladen...

Nächste Überflüge

Höhenverlauf

Altitude vs Time

uPlot chart will show altitude changes over time

Zweizeiliger Elementsatz

1 58983U 24031U 25258.60571003 .00000040 00000-0 13487-4 0 9998
2 58983 53.1612 30.1803 0001114 116.2676 243.8440 15.30196741 89700
Epoch: 15. Sept. 2025 • Age: 11 hours

Aktueller Status

Höhe 480.4 km
Geschwindigkeit 7.63 km/s
Subsatellitenpunkt 49.43°N, 65.9°E
Startdatum 15. Feb. 2024
Alter 1.5 years
Typ internet

Technische Details

Klassifizierung Payload
Masse 730.00 kg
Trockenmasse 700.00 kg
Gesamtmasse 730.00 kg
Länge 0.30 m
Durchmesser 4.10 m
Spannweite 29.00 m
Form Box + pan
Hersteller SPXS
Bus-Typ Starlink V2M
Phasenstatus In Orbit
Besitzer/Staat SPXS/US

Große Konstellationen

Loading constellations...